Flag for U.S.A. Weather past 2 weeks in Austin, Texas, U.S.A.

Now
89 °F

Sunny.


Feels Like: 92 °F
Forecast: 66 / 90 °F
Wind: 5 mph from North

Location: Camp Mabry / Austin City

Current Time: Sep 30, 2014 at 5:53:04 PM

Latest Report: Sep 30, 2014 at 4:51 PM


Visibility: 10 mi

Pressure: 29.74 "Hg

Humidity: 46%

Dew point: 66 °F

Location of AustinLocation

Historic Weather in Austin — Graph

°F

Austin temperature yesterday

Maximum temperature yesterday: 88 °F (at 2:51 PM)
Minimum temperature yesterday: 67 °F (at 5:51 AM)
Average temperature yesterday: 77 °F

Past Weeks' High & Low Weather Summary

 TemperatureHumidityPressure
High94 °F (Sep 16, 3:51 PM)100% (Sep 18, 1:51 AM)30.16 "Hg (Sep 18, 1:51 AM)
Low60 °F (Sep 24, 6:51 AM)37% (Sep 24, 3:51 PM)29.76 "Hg (Sep 30, 3:51 PM)
Average77 °F72%29.98 "Hg
* Reported Sep 15 3:51 PM — Sep 30 3:51 PM, Austin, Weather by CustomWeather, © 2014

Note: Actual official high and low records may vary slightly from our data, if they occured in-between our weather recording intervals... More about our weather records

Advertising

Austin weather history for previous 24 hours

 ConditionsComfort  
Time TempWeatherWind HumidityBarometerVisibility
3:51 PM
Sep 30
88 °FScattered clouds.No wind50%29.76 "Hg10 mi
2:51 PM88 °FSunny.No wind48%29.78 "Hg10 mi
1:51 PM88 °FPartly sunny.3 mph48%29.81 "Hg10 mi
12:51 PM87 °FPassing clouds.3 mph50%29.85 "Hg10 mi
11:51 AM83 °FPassing clouds.No wind61%29.86 "Hg10 mi
10:51 AM81 °FSunny.No wind65%29.88 "Hg10 mi
9:51 AM78 °FSunny.No wind66%29.88 "Hg10 mi
8:51 AM72 °FSunny.No wind78%29.88 "Hg10 mi
7:51 AM66 °FClear.No wind90%29.88 "Hg10 mi
6:51 AM66 °FClear.No wind90%29.87 "Hg10 mi
5:51 AM65 °FClear.No wind94%29.86 "Hg10 mi
4:51 AM66 °FClear.No wind90%29.86 "Hg10 mi
3:51 AM67 °FClear.No wind87%29.86 "Hg10 mi
2:51 AM69 °FPassing clouds.No wind81%29.87 "Hg10 mi
1:51 AM71 °FClear.No wind76%29.87 "Hg10 mi
12:51 AM71 °FClear.No wind78%29.86 "Hg10 mi
11:51 PM
Sep 29
72 °FClear.No wind73%29.88 "Hg10 mi
10:51 PM75 °FClear.No wind66%29.87 "Hg10 mi
9:51 PM77 °FClear.No wind60%29.87 "Hg10 mi
8:51 PM78 °FClear.3 mph60%29.87 "Hg10 mi
7:51 PM81 °FSunny.5 mph54%29.87 "Hg10 mi
6:51 PM84 °FSunny.No wind46%29.87 "Hg10 mi
5:51 PM87 °FScattered clouds.3 mph43%29.86 "Hg10 mi
Weather by CustomWeather, © 2014

See weather overviewHow to use our weather pages